{"data":{"norad_id":56361,"epoch":"2026-09-20T22:00:03.000096Z","epoch_age_seconds":76005,"freshness":"FRESH","line1":"1 56361U 23058AW  26263.91670139  .00087876  00000+0  43960-2 0  9993","line2":"2 56361  97.2841 257.7997 0001211  51.3408  91.5121 15.17039240  5787","mean_motion":15.1703924,"eccentricity":0.0001211,"inclination_deg":97.2841,"raan_deg":257.7997,"arg_perigee_deg":51.3408,"mean_anomaly_deg":91.5121,"bstar":0.004396,"rev_number":578,"period_min":94.921737159548,"perigee_km":513.9598039323,"apogee_km":515.62927195079,"semimajor_km":6892.9315379415,"source":"CELESTRAK","updated_at":"2026-09-21T09:00:33.429632Z"}}